Weather in Veprinets

Russia / Oryol Oblast     52°32′03″N   37°04′17″E
temp.,
°C
wind,
m/s
gust,
m/s
humid.,
%
clouds,
%
prec.,
mm/h
press.,
hPa
HPBL,
m
14 june, mon
mon1400:00+15ssw229482 0.7 101029
03:00+14s129215 0.7 101111
06:00+16sse11895 0.0 101248
09:00+20se227817 0.0 1013433
12:00+23ne01657 0.8 1014982
15:00+24ese116211 1.6 10151207
18:00+23nne22716 0.4 1014536
21:00+19ne22844 1.6 101413
15 june, tue
tue1500:00+17e228996 0.2 101511
03:00+16ene119191 0.5 101411
06:00+17nne1291100 0.0 101454
09:00+21ne2282100 0.0 1014389
12:00+23ene2271100 1.6 1013698
15:00+24ne1165100 1.9 10121100
18:00+24nnw1271100 0.0 1011796
21:00+19nw2281100 0.1 101111
16 june, wed
wed1600:00+18nw2290100 1.9 101020
03:00+17nw229165 1.9 101026
06:00+18nnw239172 0.0 101198
09:00+21n348195 0.0 1011416
12:00+23n447597 3.0 1012669
15:00+24n457533 5.8 10131059
18:00+22nne57825 1.8 1014669
21:00+18nne37920 1.8 1016132
17 june, thu
thu1700:00+16ne37940 0.0 1017145
03:00+14ne410950 0.0 1019202
06:00+15ne410915 0.0 1021284
09:00+18ne59685 0.0 1022566
12:00+20ene67595 0.0 10231181
15:00+21ne56590 0.0 10231384
18:00+20ne57730 0.0 1024808
21:00+15ne36860 0.0 102599
18 june, fri
fri1800:00+14ne34895 0.0 102650
03:00+13ne358690 0.0 102769
06:00+14ne248592 0.0 1028112
09:00+19ene34710 0.0 1028439
12:00+22e34620 0.0 10281250
15:00+23e34596 0.0 10281551
18:00+22e23700 0.0 10271017
21:00+18ese228232 0.0 102815